星链-37667(STARLINK-37667)

导读

STARLINK-37667(NORAD编号69045)是SpaceX星链(Starlink)互联网星座中的一颗低轨通信卫星,属于星链大规模组网中的一员。 星链计划旨在构建全球覆盖的天基互联网系统,该卫星承担宽带网络接入服务,为地面用户提供高速互联网通信支持。 2026年SpaceX计划将包含该星在内的约4400颗星链卫星轨道高度从550公里降至480公里,以此降低碰撞风险、减少太空碎片,提升近地轨道运行安全,卫星失效后也可更快再入大气层销毁。

Basic Information
目录编号:
69045
目录名称:
STARLINK-37667
国际标识:
2026-101W
轨道中心:
EARTH
卫星名称:
星链-37667
卫星全名:
星链-37667(STARLINK-37667)
卫星状态:
在轨 (已飞行121 天)
发射日期:
2026-05-06 UTC
国别 :
美国 (US)
星等 :
--
Orbit Information
数据来源 国际轨道数据
星历时间: 2026-09-03T11:50:41+0800
1天前
查看轨道信息
半长轴: 6843.661km
偏心率: 0.0001765
轨道倾角: 97.285°
近地点辐角 94.178°
升交点赤经 99.925°
平近点角 265.967°
近地点: 464.316km
远地点: 466.732km
周期: 93.906分钟
每日圈数: 15.334516
Detailed Information
固有亮度:
5
最大亮度:
2.5
卫星平台:
Starlink V1.0
覆盖范围:
全球
运营商:
太空探索技术公司
运营商所在国:
美国
制造商(研发单位):
太空探索技术公司
制造商所在国:
美国
使用方式:
暂无
Satellite Introduction
Starlink 计划是 SpaceX 推出的全球卫星互联网项目,通过发射低轨道卫星,为全球尤其是偏远地区提供高速、低延迟的互联网服务。自 2019 年起,Starlink 已部署数千颗卫星,旨在缩小全球数字鸿沟,推动互联网普及。该项目还为军事、航空等行业提供通信支持,带来广泛经济效益。
2D Orbit Map
3D Orbit Map
Orbit Altitude Analysis Chart
Orbit Inclination Analysis Chart
Orbit Comprehensive Analysis Chart
View Comprehensive Chart
Conjunction Data List
Event ID Objects TCA Miss Dist (km) Collision Risk Probability Collision Risk Index (CRI) Action
CDM_260903-123605-740806-904522
2026-09-03T
12:36:38+0000
1.108 km
极远距离
1.789492E-5 中风险 0.6
CDM_260905-131306-904506-959721
2026-09-05T
13:13:53+0000
1.610 km
极远距离
4.426961E-6 低风险 0.48
CDM_260904-103605-228006-904521
2026-09-04T
10:36:43+0000
2.657 km
极远距离
1.320871E-6 低风险 0.37
CDM_260903-075805-342306-904521
2026-09-03T
07:58:57+0000
2.610 km
极远距离
1.308483E-6 低风险 0.37
CDM_260903-143406-036706-904521
2026-09-03T
14:34:23+0000
2.873 km
极远距离
1.253573E-6 低风险 0.37